Regional Weather Roundup
Issued by NWS Kansas City/Pleasant Hill, MO

Home | Current Version | Previous Version | Graphics & Text | Print | Product List | Glossary Off
Versions: 1 2 3 4 5 6 7 8 9 10 11 12 13 14 15 16 17 18 19 20 21 22 23 24 25 26 27 28 29 30 31 32 33 34 35 36 37 38 39 40 41 42 43 44 45 46 47 48 49 50

000
ASUS43 KEAX 281410
RWREAX

WEATHER ROUNDUP FOR EASTERN KANSAS AND NORTHWEST MISSOURI
NATIONAL WEATHER SERVICE KANSAS CITY/PLEASANT HILL MO
800 AM CST SAT FEB 28 2015

KSZ040-057-103>105-MOZ028-029-037-043-281500-
...KANSAS CITY METROPOLITAN AREA...

CITY           SKY/WX    TMP DP  RH WIND       PRES   REMARKS
K.C. INTL      PTSUNNY   17   9  70 SE10      30.50S WCI   5
K.C. DOWNTOWN  CLOUDY    19  10  68 E9        30.52S WCI   8
LEES SUMMIT    PTSUNNY   18   9  68 E9        30.49F WCI   7
OLATHE - IXD   CLOUDY    18   9  68 E8        30.49S WCI   8
OLATHE - OJC   FLURRIES  18   9  68 E8        30.48S WCI   8
LAWRENCE       CLOUDY    18  10  71 E7        30.50S WCI   9

$$

MOZ001>008-011>017-020>025-030>033-038>040-044>046-053-054-281500-
...NORTHERN AND CENTRAL MISSOURI...

CITY           SKY/WX    TMP DP  RH WIND       PRES   REMARKS
ST. JOSEPH     MOSUNNY   16   9  74 E5        30.53F WCI   9
MOSBY          MOSUNNY   18  10  73 E5        30.53S WCI  11
WARRENSBURG    SUNNY     19  10  68 E8        30.53S WCI   9
WHITEMAN AFB   NOT AVBL
CLINTON        CLOUDY    23  12  63 SE10      30.53R WCI  12
SEDALIA        CLOUDY    21   8  57 SE13      30.54F WCI   9
WARSAW         NOT AVBL
MARSHALL       MOSUNNY   18  10  73 E5        30.57S WCI  11
CHILLICOTHE      N/A     14   5  67 E6        30.57F WCI   5
MOBERLY        SUNNY     16   7  67 E7        30.58F WCI   6
KIRKSVILLE     SUNNY     12   4  70 SE8       30.58S WCI   0

$$

MOZ041-047>049-056>058-063>065-088>090-097-281500-
...EASTERN AND SOUTHERN MISSOURI...

CITY           SKY/WX    TMP DP  RH WIND       PRES   REMARKS
ST. LOUIS INTL CLOUDY    18   7  62 E8        30.65R WCI   8
SPIRIT OF STL  CLOUDY    18   5  57 E6        30.64S WCI  10
COLUMBIA       CLOUDY    17  11  77 E10       30.57S WCI   5
JEFFERSON CITY CLOUDY    19  10  68 E9        30.60F WCI   8
MEXICO         CLOUDY    18  12  79 E7        30.59  WCI   8
HANNIBAL       SUNNY     18   1  49 E7        30.62S WCI   8
ROLLA          CLOUDY    18   9  68 E10       30.53S WCI   6
LEBANON        FLURRIES  19  10  68 E9        30.50S WCI   9
OSAGE BEACH    CLOUDY    21   7  53 SE9       30.54F WCI  11
SPRINGFIELD    LGT SNOW  20  14  77 SE12      30.47S WCI   8
BRANSON        LGT SNOW  19  16  86 E12       30.49S WCI   7
NEVADA         CLOUDY    21  12  68 SE10      30.50S WCI  10
JOPLIN         CLOUDY    21  15  78 E7        30.47S WCI  12
WEST PLAINS    CLOUDY    18  12  77 E9        30.52S WCI   7

$$

IAZ060-094-KSZ022-034>040-054-083-096-NEZ052-066-093-281500-
...KANSAS...SOUTHEAST NEBRASKA AND IOWA...

CITY           SKY/WX    TMP DP  RH WIND       PRES   REMARKS
TOPEKA         LGT SNOW  18  10  71 E7        30.50R WCI   9
MANHATTAN      SNOW      17  14  88 SE5       30.46R VSB 1/2 WCI  10
EMPORIA        SNOW      17  13  84 SE6       30.46R VSB 1/2 WCI   9
CHANUTE        LGT SNOW  20  17  88 SE5       30.48R FOG     WCI  13
WICHITA        SNOW      17  13  84 SE6       30.41F VSB 1/2 WCI   9
OMAHA          MOSUNNY   10   4  76 SE9       30.49F WCI  -3
LINCOLN        PTCLDY     8   3  80 S6        30.46S WCI  -2
FALLS CITY     MOSUNNY   14   7  73 SE9       30.49F WCI   2
LAMONI         CLOUDY     8   2  76 E5        30.53R WCI   0
DES MOINES     FAIR       4  -4  69 SE8       30.56S WCI  -9

$$



USA.gov is the U.S. government's official web portal to all federal, state and local government web resources and services.